Theta_e
359 359 358 357 358 358 357 357 359 357 359 355 356 355 354 352 357 356 357 357 355 355 355 354 354 356 353 354 353 357 357 356 355 354 355 359 359 355 359 359 357 358 357 357 357 356 356 356 355 355 355 355 355 356 355 355 356 356 356 358 357 358 359 358 359 359 359 359 359 360 360 361 361 362 361 361 361 360 360 360 360 360 360 360 360
358 359 356 357 357 358 359 359 357 356 356 356 357 355 353 353 355 357 355 357 355 356 356 351 349 350 353 353 353 354 358 355 356 354 357 354 356 353 359 359 359 356 358 358 357 357 356 357 357 357 357 357 358 357 357 358 359 358 359 358 358 359 359 360 360 360 361 361 362 362 362 362 362 363 362 362 361 361 361 361 361 361 361 361 361
357 357 357 357 359 359 358 360 357 356 358 358 359 357 355 355 359 357 360 359 356 356 356 353 354 350 352 351 353 356 356 359 355 354 352 356 358 358 358 361 360 359 359 358 358 358 359 359 359 359 359 360 360 360 361 361 360 361 360 360 361 361 362 362 362 363 363 364 364 364 364 364 364 363 363 363 362 362 362 362 363 362 362 362 362
360 359 358 358 357 359 358 357 358 357 358 357 356 358 358 360 362 363 362 361 358 356 357 352 352 351 353 350 354 354 355 356 352 353 353 357 358 360 361 359 361 363 360 360 360 360 359 360 361 361 361 361 362 363 363 364 364 364 364 363 363 363 363 364 364 364 364 364 365 364 365 365 364 364 363 363 364 363 363 364 364 363 364 364 363
360 361 360 358 359 359 356 358 358 359 359 362 361 359 359 359 359 361 359 361 356 355 352 351 351 352 354 351 351 352 355 355 358 355 352 356 358 359 360 363 362 359 363 363 362 363 362 363 363 363 363 364 364 365 365 365 366 366 367 367 366 366 366 366 366 366 366 366 366 366 366 365 365 365 365 365 364 364 364 364 365 365 364 363 364
363 363 360 358 360 359 356 357 360 361 361 362 357 356 356 357 358 357 356 358 353 354 351 349 349 351 352 352 354 356 355 352 351 354 355 355 357 361 360 362 362 366 363 359 362 361 362 363 363 364 366 365 366 366 367 367 367 367 367 368 368 368 368 368 368 368 368 368 368 367 368 367 367 367 366 366 366 365 365 365 366 366 366 364 364
366 364 362 361 356 355 356 355 360 361 356 361 359 358 358 358 357 358 357 353 352 354 351 350 348 351 355 356 353 354 354 352 353 351 353 358 359 359 363 362 364 364 366 366 360 363 363 363 362 362 362 364 365 366 367 367 368 368 368 369 369 369 369 369 368 368 368 369 369 369 369 369 369 368 368 368 368 367 367 367 367 367 367 366 365
366 366 360 358 355 355 355 361 365 360 358 360 360 357 358 358 360 359 355 351 353 349 353 352 351 350 353 355 355 356 353 354 355 351 352 359 358 360 360 362 364 363 363 366 368 368 364 363 364 363 364 364 365 367 367 368 368 369 369 370 371 371 370 370 369 369 368 369 369 370 370 371 370 370 370 370 369 369 368 368 368 367 367 367 366
367 367 363 360 356 357 357 360 363 359 363 358 355 357 359 353 360 361 360 355 348 346 349 352 349 349 350 350 351 356 354 358 354 353 352 355 358 355 357 358 362 358 366 365 367 371 369 366 365 365 365 365 365 366 367 369 368 368 369 372 373 373 373 371 371 371 371 370 370 371 371 371 370 370 371 371 370 370 370 369 369 368 367 367 367
367 366 364 361 359 360 360 364 363 363 360 357 356 358 360 358 357 361 360 357 349 349 348 348 346 345 350 348 354 351 353 355 355 357 355 353 356 355 359 357 359 358 358 362 360 364 367 370 366 367 367 367 366 364 364 364 366 368 370 370 371 372 372 372 372 371 371 371 371 371 372 373 373 372 372 372 371 370 369 369 369 368 368 368 367
366 367 366 359 360 361 361 366 363 362 360 357 357 360 360 359 359 361 365 358 353 352 351 350 346 346 346 349 351 354 356 353 357 356 353 352 353 354 353 359 356 356 361 362 359 362 365 367 370 373 371 367 367 366 366 367 368 368 369 371 372 373 372 373 373 372 371 372 373 373 374 373 373 373 372 372 372 371 370 370 370 369 369 368 367
367 367 367 364 360 360 363 363 361 360 357 356 356 359 360 361 361 359 358 356 355 354 353 351 350 349 349 350 352 353 354 354 354 353 355 353 354 355 351 354 357 358 356 359 359 356 362 364 366 362 362 370 371 368 369 368 368 368 368 369 371 374 376 375 374 373 372 373 374 374 372 371 372 373 373 373 372 371 371 370 370 369 368 368 368
367 367 364 362 364 363 363 362 361 361 361 359 360 361 365 365 363 367 355 353 349 349 349 352 350 346 351 348 350 353 353 354 351 349 349 349 350 350 349 351 352 355 357 357 360 358 356 363 362 364 364 366 376 373 372 372 373 371 368 369 371 373 375 375 376 373 372 372 373 372 371 371 370 371 372 371 371 371 371 369 369 368 368 368 367
367 367 366 363 363 360 363 362 362 363 364 365 365 365 365 364 363 358 355 351 350 349 346 353 345 342 342 343 343 349 352 350 348 345 346 347 347 348 351 347 347 349 352 354 359 355 350 351 362 360 364 365 363 365 369 377 379 367 368 372 372 373 374 374 374 374 373 372 372 371 371 371 371 371 370 370 369 369 369 368 368 368 368 368 368
366 366 365 364 362 361 362 363 364 365 364 363 364 363 363 363 362 356 349 352 350 352 355 355 342 344 350 345 338 340 347 347 347 346 345 346 346 345 347 344 344 349 353 354 348 349 348 351 355 360 363 364 361 361 362 364 364 368 371 371 370 369 369 369 371 373 373 373 372 371 371 371 371 371 370 370 369 369 369 368 368 368 368 367 367
362 362 363 364 365 362 361 363 366 368 366 365 364 361 363 361 359 357 358 347 347 349 353 354 351 346 339 340 340 339 336 341 345 345 347 346 344 341 344 345 345 346 351 351 346 347 346 354 354 359 363 362 362 363 360 360 363 371 373 370 367 366 367 369 370 370 371 373 372 371 370 370 371 370 370 370 370 370 369 369 368 368 368 367 367
362 363 362 365 367 365 363 364 366 367 366 364 362 358 360 361 361 359 357 351 344 348 352 352 354 357 347 343 340 340 335 338 340 342 344 342 344 340 339 347 342 344 344 340 347 344 350 349 351 359 363 362 363 361 362 363 364 366 367 371 365 367 366 368 369 371 372 374 371 370 370 370 369 369 370 370 370 369 369 368 368 368 367 367 367
362 364 363 363 366 366 367 366 367 366 366 365 363 360 360 359 361 359 355 357 358 349 344 353 353 359 352 347 351 342 341 341 340 335 349 344 338 343 344 346 345 345 347 348 344 343 349 350 350 349 357 359 360 360 359 360 363 359 360 370 365 367 368 368 369 371 371 371 370 370 370 369 368 369 368 367 368 368 368 368 367 367 367 367 368
362 366 365 366 366 367 369 368 367 367 367 366 362 359 359 360 363 360 358 361 360 350 349 346 355 353 349 350 348 350 346 347 336 337 337 340 342 343 343 346 347 347 347 347 347 346 353 350 347 351 354 358 359 359 363 361 361 368 368 365 367 369 368 368 368 370 371 373 371 369 369 368 368 366 367 366 366 367 366 367 367 367 367 368 367
366 368 369 366 366 367 369 370 368 368 365 364 362 362 364 364 366 366 367 365 361 355 353 349 348 347 354 353 351 350 346 348 345 344 339 340 339 342 343 345 347 347 348 348 348 349 348 346 348 350 353 359 359 357 359 360 368 365 367 365 368 368 367 366 365 368 370 370 370 368 368 367 368 366 365 366 366 366 366 367 367 368 368 368 368
368 368 369 368 367 368 369 370 368 368 366 365 364 363 365 365 366 364 363 363 361 361 360 355 352 348 355 354 353 348 346 347 349 346 343 338 338 335 337 343 346 346 348 350 351 351 350 350 345 349 351 360 362 363 361 366 366 362 364 367 369 367 366 365 366 368 369 368 368 368 367 366 366 367 366 365 365 365 365 365 366 367 368 368 367
367 368 370 368 369 368 365 365 366 365 365 367 365 366 366 366 366 366 367 364 365 360 357 357 355 354 354 355 355 351 350 347 343 343 343 344 338 337 340 341 340 342 343 349 350 350 352 351 352 350 356 359 363 360 365 366 368 360 366 366 367 366 365 365 367 368 367 367 368 369 368 366 367 365 365 365 365 365 365 364 365 366 366 366 366
362 364 367 367 367 368 365 364 367 368 369 366 367 364 363 365 366 368 367 366 362 362 359 358 358 357 353 353 351 345 346 345 346 344 345 344 341 340 340 342 341 341 348 349 349 352 352 353 353 349 354 358 363 363 365 365 366 368 365 365 364 364 365 366 366 366 365 365 364 364 364 365 363 364 365 364 364 364 364 364 364 365 365 365 364
364 362 363 362 366 365 369 368 367 369 367 368 368 367 366 367 367 367 367 367 366 365 362 357 354 356 352 351 348 349 350 348 348 350 347 345 342 342 342 344 345 345 348 354 352 352 351 354 356 359 356 359 363 368 367 362 374 360 365 364 363 361 363 366 365 365 364 363 363 362 363 363 361 362 363 363 363 364 364 364 364 365 364 364 363
359 361 361 364 366 366 367 366 369 369 372 372 370 368 371 368 367 365 366 366 364 365 361 360 357 356 352 352 350 351 350 350 349 349 349 348 348 341 345 343 340 343 351 348 348 350 354 354 355 356 360 363 363 369 364 362 369 365 364 366 360 363 361 362 363 364 363 362 362 362 364 362 362 364 364 362 363 364 363 364 363 362 362 362 362
357 360 362 363 363 365 366 367 370 371 371 373 371 372 370 370 368 366 364 367 368 365 364 361 361 361 357 355 355 352 352 352 353 349 351 351 348 347 349 345 344 342 349 351 352 345 354 356 356 361 359 362 363 365 365 360 364 367 364 367 361 357 358 359 360 361 363 362 362 364 362 361 362 363 364 363 363 364 363 363 362 360 360 360 360
356 360 365 364 365 366 365 365 367 369 371 371 370 370 372 368 369 366 369 366 366 366 363 361 359 359 362 359 353 355 353 354 353 351 353 352 351 352 350 348 345 344 347 351 353 348 346 355 355 360 362 366 366 367 364 362 362 365 367 371 366 352 355 355 355 358 360 362 360 360 361 361 361 363 364 363 362 363 363 363 362 361 359 358 358
357 360 361 364 365 364 365 364 368 366 369 370 371 369 369 369 369 368 365 364 364 364 363 361 360 361 361 363 358 357 357 358 355 355 355 355 354 355 356 354 344 344 345 345 345 349 352 351 356 359 363 366 364 368 363 361 358 365 369 368 366 365 353 353 352 352 353 355 356 357 358 359 360 360 361 361 361 361 361 362 362 360 358 357 357
354 358 361 364 366 365 364 361 364 367 370 369 369 370 372 369 366 368 367 365 367 366 363 361 362 360 360 360 358 358 360 360 358 358 360 361 358 358 355 352 355 347 346 345 349 344 350 352 348 361 364 365 365 362 363 362 361 362 363 365 365 367 353 350 349 349 350 350 352 354 356 357 358 358 359 359 358 359 358 358 358 357 355 354 354
354 352 358 361 365 366 367 365 364 365 368 368 368 369 371 367 368 369 368 371 368 369 365 363 363 362 360 360 360 357 362 359 358 359 365 365 359 359 359 359 358 355 354 346 349 350 349 352 353 359 367 363 362 361 360 360 360 358 360 360 361 362 348 349 350 349 348 348 349 350 352 354 355 356 355 355 355 354 354 354 354 354 353 351 351
357 360 360 359 362 363 366 364 364 364 366 368 370 371 373 369 368 366 368 371 369 366 369 364 361 362 365 359 363 359 363 360 362 359 364 365 364 361 362 363 362 361 359 357 346 356 353 347 351 357 358 362 360 358 355 355 356 354 356 358 360 357 351 360 349 348 348 346 346 347 348 350 352 352 352 353 352 352 350 350 350 349 349 348 347
356 358 359 359 358 358 358 358 357 359 361 363 365 368 370 370 367 363 364 369 367 367 364 364 360 364 365 362 364 363 365 365 363 362 362 366 366 363 364 365 366 363 362 358 355 350 354 351 353 355 358 361 363 357 357 355 360 356 359 360 368 359 374 370 350 349 347 346 345 345 345 346 347 350 351 351 350 348 348 347 345 345 344 343 341
355 355 356 359 360 359 357 359 358 361 364 363 364 368 369 370 369 369 369 370 368 366 366 365 363 365 366 365 364 365 368 363 362 360 359 361 364 362 363 362 360 363 362 360 354 354 359 361 358 355 358 360 356 361 360 356 354 355 355 355 360 357 355 355 361 348 347 346 345 344 343 342 343 345 348 348 347 345 343 341 338 337 336 335 333
356 355 356 357 360 360 358 358 361 361 364 366 365 365 367 368 368 365 363 365 367 366 365 366 363 362 367 367 367 365 369 363 360 358 358 356 356 357 357 359 358 359 365 359 358 357 354 359 356 360 357 361 356 363 362 357 355 358 355 354 355 356 358 364 363 360 346 347 345 343 342 341 341 343 344 344 342 340 338 335 332 331 331 329 327
358 357 357 358 359 361 360 361 362 362 364 365 365 364 365 366 367 364 361 365 364 362 362 363 361 364 365 366 364 365 361 362 363 360 358 358 358 359 358 358 359 359 360 364 361 358 356 356 361 355 355 359 359 360 363 358 361 361 362 359 357 357 360 360 361 362 346 348 345 344 342 340 340 339 338 338 338 336 333 330 327 326 326 325 324
361 363 362 361 362 363 361 362 363 364 363 364 364 364 365 366 366 365 366 366 365 363 361 362 361 362 362 364 362 363 364 365 364 361 361 361 363 363 362 364 364 360 362 362 367 361 359 355 360 358 358 359 358 360 358 359 359 363 363 364 363 363 360 359 359 359 353 348 347 346 343 341 338 336 334 334 332 329 327 326 325 325 324 323 323
364 363 363 364 364 364 359 359 362 363 362 363 364 363 363 364 365 363 364 366 367 365 364 364 364 365 364 363 362 365 366 364 364 361 361 363 363 362 362 363 363 364 363 363 361 360 362 359 358 362 365 363 362 364 365 358 359 362 365 366 363 365 367 363 359 359 349 345 347 344 342 341 339 336 333 332 330 329 328 326 325 324 322 321 321
362 362 364 363 363 364 362 361 362 364 365 365 364 366 364 363 364 364 364 366 364 366 365 363 364 365 364 365 364 364 363 361 360 361 364 364 363 359 362 366 365 363 364 364 362 359 356 359 361 358 362 357 360 361 365 363 358 356 353 361 363 366 368 365 361 360 360 361 362 355 343 341 337 334 335 331 329 328 327 327 326 324 322 321 319
362 363 363 364 364 362 363 362 361 364 365 364 366 368 366 366 365 366 364 364 365 366 366 365 367 367 365 364 365 363 361 362 360 361 363 364 360 364 365 365 363 362 360 361 359 356 356 353 357 357 355 357 361 357 362 368 364 359 356 359 360 362 365 366 364 363 364 360 354 347 349 348 342 339 329 330 328 327 327 327 327 326 324 321 319
360 361 361 361 361 362 363 363 363 364 365 365 366 368 368 366 365 365 366 365 363 364 364 368 367 366 366 365 363 363 364 366 366 366 366 364 367 365 366 364 363 360 358 360 360 359 358 358 356 355 356 357 360 362 361 364 355 355 355 357 356 357 359 362 363 361 362 360 359 359 349 343 339 334 329 329 330 331 331 330 328 327 325 322 321
360 360 361 361 361 363 365 364 364 364 364 364 365 365 364 365 367 365 364 363 363 363 365 364 365 366 367 367 364 363 367 369 366 364 364 367 368 367 370 367 365 363 361 360 358 360 358 358 356 356 356 356 358 357 357 359 356 351 358 360 358 358 359 358 360 364 360 357 357 357 355 352 350 353 352 347 340 335 331 330 330 328 325 322 321
364 365 364 363 363 362 363 365 365 363 363 362 364 364 369 367 366 364 361 363 365 365 365 366 363 363 364 365 363 364 364 366 365 365 366 367 368 367 368 369 367 364 362 359 359 358 355 352 353 351 350 348 348 353 353 352 357 360 356 359 356 357 358 355 359 357 356 356 354 355 353 350 348 350 350 346 339 335 331 329 327 326 324 322 321
364 367 366 364 363 361 360 361 362 360 360 361 363 348 349 358 364 365 367 368 369 369 365 366 365 362 359 359 361 363 366 368 368 365 369 368 369 367 366 364 368 368 363 358 358 355 354 353 352 351 349 350 352 355 354 354 356 357 357 359 356 354 351 348 347 355 354 354 355 352 349 349 350 348 349 343 338 333 328 326 325 324 322 322 321
367 365 364 364 365 364 361 360 359 359 361 350 341 343 347 348 359 365 367 367 367 366 366 364 363 362 359 360 359 360 360 358 364 371 370 368 366 367 367 365 363 360 357 365 359 355 355 356 355 353 353 354 356 358 355 356 357 356 357 356 356 353 352 349 350 348 350 352 350 349 349 350 347 345 347 342 337 331 326 326 323 323 322 321 321
364 364 366 363 364 363 361 361 359 359 362 339 336 340 341 342 349 363 365 367 366 365 364 365 365 365 365 363 363 362 358 359 365 364 369 372 365 365 363 361 356 354 343 346 355 363 358 357 357 357 357 359 357 358 357 356 358 355 353 350 352 351 352 349 347 347 348 350 348 344 343 346 344 338 341 343 339 334 328 326 323 323 321 321 320
367 365 362 357 354 355 356 355 359 360 356 342 334 335 336 337 341 351 366 365 364 365 366 364 362 363 365 365 364 361 364 364 365 363 363 368 371 368 366 365 364 359 354 351 354 357 358 355 361 359 359 357 356 357 358 357 354 352 349 348 351 349 349 348 350 349 345 344 341 341 340 340 340 332 334 343 339 339 333 324 322 321 321 320 320
363 363 363 358 355 353 353 353 359 358 349 330 330 332 331 333 336 350 364 363 361 361 362 362 363 362 364 363 365 366 365 363 352 348 362 365 367 364 363 360 358 359 357 355 354 356 359 359 359 358 355 355 354 352 352 352 353 352 350 351 350 350 349 352 351 348 341 339 337 336 331 338 337 330 331 333 341 338 331 322 320 322 321 320 320
363 360 359 360 357 352 352 355 355 353 345 326 327 329 328 330 336 355 363 363 360 358 359 362 363 364 363 363 364 365 361 360 336 330 342 356 359 357 360 357 354 350 343 334 326 332 343 347 347 345 339 335 333 340 339 339 344 349 351 349 348 347 343 342 340 341 336 334 332 329 328 333 335 326 327 329 332 340 337 331 323 321 321 321 320
360 359 359 358 358 358 355 351 349 355 343 330 322 324 326 326 339 360 362 359 360 360 362 360 360 360 358 358 360 361 361 349 329 321 329 346 356 358 358 354 347 345 342 338 328 325 323 322 322 324 324 325 326 324 324 326 338 341 345 343 339 339 338 335 335 334 334 331 327 327 328 332 329 329 325 325 329 335 340 337 331 322 319 319 318
355 357 358 357 357 357 354 351 350 351 348 334 319 322 323 325 343 359 362 360 361 362 359 357 360 357 350 347 352 355 350 343 323 323 328 349 357 358 352 345 344 344 343 340 337 331 326 325 325 326 327 329 331 330 329 328 329 338 338 333 332 331 331 331 330 330 333 330 325 327 332 328 326 330 323 327 329 330 335 336 333 332 320 318 317
352 353 352 353 351 352 353 353 350 352 349 338 319 320 322 324 334 357 361 362 360 358 357 356 356 354 349 342 342 344 343 335 320 324 330 349 352 348 346 342 342 339 341 342 341 338 337 335 337 339 339 336 337 336 336 336 335 335 333 330 330 331 330 330 325 323 325 327 323 327 326 328 325 327 324 324 320 329 337 333 330 333 336 334 332
Wind_Speed
6 5 4 5 4 4 4 4 3 3 3 4 3 3 3 4 3 2 3 2 2 4 3 4 5 5 6 7 7 6 6 6 6 5 5 5 6 8 6 5 5 3 4 2 2 1 2 3 1 1 1 2 2 3 2 2 3 4 4 4 4 4 5 5 6 6 7 7 7 8 7 8 8 9 9 8 8 8 8 8 8 9 9 9 7
5 5 5 5 5 5 4 4 4 3 3 4 3 2 3 3 3 3 3 3 4 4 2 4 5 6 5 6 6 7 6 6 6 5 5 5 6 7 8 5 5 4 3 3 2 2 1 2 2 2 2 2 3 3 3 4 4 4 5 5 5 5 5 5 6 6 7 8 8 9 8 8 8 9 9 9 8 8 8 9 9 9 9 9 9
5 5 5 5 5 4 4 3 4 3 3 4 3 3 2 3 4 3 3 3 4 3 2 4 4 5 5 6 6 6 6 5 6 6 7 5 5 6 7 7 5 5 5 4 4 3 3 3 3 4 4 4 4 5 5 6 5 6 6 5 6 6 6 6 6 6 7 9 9 9 9 9 8 9 9 9 9 9 9 9 9 9 9 9 9
4 4 5 4 4 4 4 4 4 3 3 3 2 3 3 2 3 2 1 2 4 3 3 3 4 4 5 6 6 6 6 5 7 7 7 6 6 5 6 7 7 5 5 5 5 6 5 5 5 5 5 6 6 6 7 7 7 7 7 7 7 7 7 7 7 7 8 8 9 10 10 10 9 9 9 9 10 10 10 10 10 10 10 10 9
4 5 4 4 4 3 4 4 4 3 3 2 2 1 2 2 3 2 2 2 5 3 2 4 5 3 3 6 6 6 6 6 5 5 7 7 6 5 5 5 7 9 8 6 6 5 6 6 5 5 5 5 7 7 7 8 8 8 8 9 9 8 9 9 8 8 9 9 9 10 10 10 10 9 9 10 10 11 11 11 11 10 10 10 10
4 4 4 4 4 3 4 4 4 3 3 1 2 1 2 2 2 2 2 3 5 3 2 4 4 4 5 5 5 5 5 5 6 5 5 7 6 5 5 5 4 5 6 10 8 8 7 7 7 6 6 6 7 8 8 8 9 9 10 10 10 9 9 9 9 9 9 9 10 10 11 11 11 10 10 10 11 11 11 11 11 11 10 10 10
3 3 3 3 4 4 3 4 3 2 2 3 1 2 2 2 3 3 2 4 5 4 4 5 6 6 5 4 5 5 5 5 4 6 6 5 5 5 4 4 4 4 5 6 10 10 9 9 8 7 8 8 8 8 9 9 10 10 10 10 10 10 9 9 9 8 8 9 10 10 10 11 10 10 10 10 10 11 11 11 11 11 11 11 11
3 2 2 3 3 4 4 3 2 2 2 2 1 2 2 1 3 3 4 4 2 5 4 5 4 6 4 5 5 4 4 4 3 5 5 4 5 5 4 4 3 3 1 3 4 8 11 9 8 8 8 9 9 9 9 10 10 11 11 11 10 10 9 8 8 8 8 8 9 9 10 10 10 10 10 10 10 11 11 11 12 11 11 11 11
3 2 1 3 3 4 4 4 2 2 1 1 1 2 2 3 2 4 3 1 2 6 4 4 5 5 5 5 6 3 4 3 4 5 4 4 5 6 5 4 4 4 4 4 3 4 11 10 9 9 9 8 9 9 10 10 11 11 10 10 9 9 8 8 7 7 7 8 8 8 9 9 10 9 9 10 10 10 11 11 11 11 11 11 11
2 1 1 1 3 3 3 3 2 1 1 2 1 1 1 2 3 3 3 1 2 3 3 2 3 5 5 6 4 4 4 3 4 3 4 4 2 4 2 3 4 2 1 1 3 1 3 10 11 11 11 10 10 10 10 10 10 9 9 9 8 8 8 7 7 6 7 7 8 8 8 9 9 9 10 10 10 10 10 10 10 10 10 10 10
2 1 0 2 2 3 2 2 2 1 1 3 2 2 2 3 3 3 1 2 2 2 3 1 2 3 6 6 5 4 3 4 3 2 2 2 4 3 4 2 3 4 3 4 3 4 1 1 4 5 8 12 10 10 10 9 8 8 8 8 8 7 6 6 5 6 6 7 7 7 7 8 9 10 10 10 10 10 10 9 9 10 10 9 9
1 1 1 1 2 2 3 2 2 2 1 0 1 1 3 3 3 4 1 3 2 3 4 3 3 5 4 5 4 4 4 3 3 4 3 4 4 1 3 5 3 3 5 2 1 2 3 3 2 2 3 11 10 10 9 7 7 6 6 6 5 7 7 6 6 6 7 7 7 7 7 8 9 9 10 10 10 10 9 8 8 9 9 9 9
1 1 1 1 1 2 2 2 2 2 2 1 1 3 3 3 2 1 1 3 4 3 3 2 3 4 3 5 4 4 5 2 2 4 3 4 4 3 3 3 2 4 2 3 2 2 4 3 2 1 2 2 7 10 7 7 7 5 4 4 5 6 7 7 6 7 7 8 8 8 7 8 9 9 9 9 9 9 9 8 8 8 9 9 9
2 1 1 2 2 2 3 3 3 2 1 0 1 2 2 3 3 1 3 3 3 1 4 2 2 3 4 5 6 3 0 4 5 4 4 4 6 5 5 5 3 5 4 0 3 4 4 4 2 2 2 2 1 3 3 5 8 3 2 4 5 6 7 8 8 8 8 9 9 8 8 7 8 9 9 9 9 8 8 8 8 8 9 9 9
2 2 2 3 2 3 3 3 2 2 1 1 0 1 2 3 1 2 2 4 3 3 3 5 5 5 3 4 3 3 2 1 2 3 3 3 4 5 2 9 5 3 1 3 5 2 3 2 2 2 2 1 1 1 2 0 4 1 3 3 4 5 6 7 8 8 8 9 9 8 8 7 7 8 8 8 8 8 8 7 7 7 7 8 8
4 4 3 3 3 3 3 3 2 1 1 0 0 0 1 1 3 4 3 2 4 5 2 3 3 7 3 2 6 3 3 2 3 4 2 2 8 9 4 4 9 4 5 1 5 7 3 5 2 3 2 1 1 0 3 2 4 6 5 2 3 5 6 7 7 8 8 9 9 9 8 7 7 7 7 8 8 8 7 7 7 7 8 8 8
4 3 4 4 2 2 3 3 2 1 1 1 1 0 2 2 2 1 4 5 3 4 3 3 3 4 3 2 3 3 4 6 6 2 5 5 7 4 5 4 9 2 6 5 1 8 3 6 3 6 2 2 2 1 1 2 2 4 2 6 6 5 6 5 6 7 8 8 9 8 8 8 8 8 8 8 8 8 7 7 7 7 7 8 8
4 4 4 4 4 3 3 3 3 2 1 1 1 0 1 2 4 3 2 3 4 2 6 3 3 4 6 4 0 0 3 4 7 2 6 8 2 1 5 3 8 8 7 9 3 4 7 8 5 5 5 2 3 1 2 1 2 3 4 5 6 6 5 5 5 7 7 8 9 8 7 8 8 8 8 8 8 8 7 6 6 7 7 8 9
5 4 4 3 4 4 3 3 2 2 1 2 2 3 1 3 3 3 4 4 3 2 0 5 2 2 3 4 2 1 4 0 5 3 2 4 3 5 3 3 1 4 2 3 6 7 2 7 5 5 1 3 4 3 2 3 4 5 7 7 6 6 6 5 5 6 7 8 8 8 7 8 8 8 8 8 8 7 7 6 6 6 7 8 9
4 4 4 4 4 4 3 2 1 1 1 2 1 1 2 3 3 3 3 2 3 4 5 2 3 3 4 3 4 6 3 4 6 5 4 2 1 6 6 3 2 2 1 2 3 4 5 4 6 6 4 6 6 5 7 8 8 6 2 8 6 7 7 7 6 5 7 8 8 7 7 8 8 9 9 9 8 8 7 7 6 7 7 8 8
3 3 3 4 4 4 3 2 2 2 2 2 1 2 1 3 2 1 2 2 3 3 2 3 5 3 2 2 4 1 2 4 5 1 4 5 6 6 4 2 4 4 4 5 4 4 4 5 2 3 3 4 5 7 4 4 5 5 6 6 6 7 7 7 7 6 7 7 7 6 7 8 8 8 9 9 9 9 8 8 8 7 8 7 8
5 3 4 4 4 5 5 4 3 2 2 2 1 2 2 2 1 3 3 2 1 2 2 2 3 2 2 2 1 3 2 1 3 4 3 3 2 2 3 3 1 1 3 2 4 3 4 4 4 9 4 5 2 2 4 3 2 5 2 4 5 6 6 7 6 6 6 6 7 5 6 6 6 8 9 8 9 9 9 8 8 8 8 8 9
5 5 5 5 5 4 5 5 3 3 1 2 3 3 4 3 3 2 2 2 2 2 0 0 2 2 1 1 3 1 1 2 3 5 4 4 3 3 2 2 6 2 2 2 5 3 2 2 4 2 2 2 3 3 3 6 4 3 8 2 6 6 6 6 6 5 4 5 5 5 6 5 6 7 8 8 9 9 9 9 9 10 10 10 10
4 4 5 6 5 5 4 4 3 3 3 2 1 1 0 2 2 1 2 1 1 1 3 2 1 1 5 0 2 2 1 3 1 2 1 1 5 5 6 2 4 3 3 2 3 2 2 2 2 5 3 2 2 2 1 9 5 7 9 9 5 6 6 6 6 4 4 3 3 4 5 5 6 6 7 8 9 8 9 10 10 11 12 11 11
5 5 5 6 5 4 4 4 3 2 1 2 1 0 1 0 2 2 1 1 1 1 2 1 2 4 3 1 2 3 2 2 2 4 2 1 4 2 5 6 4 3 2 4 4 4 2 3 2 3 3 2 2 0 3 7 4 9 10 9 8 7 6 6 6 5 3 2 3 4 5 6 6 7 7 8 8 9 9 11 12 12 13 12 12
6 5 4 6 5 5 4 4 3 2 2 1 0 1 0 2 2 1 3 1 1 1 3 1 1 2 3 4 3 1 2 3 1 4 2 1 3 2 2 3 5 4 0 2 3 5 1 0 1 2 2 3 3 2 4 5 3 9 7 6 10 8 7 7 7 6 5 4 5 6 6 7 8 9 9 9 9 9 10 11 12 12 13 13 13
5 5 4 3 4 3 3 3 4 3 3 3 2 2 1 2 1 2 2 3 3 3 3 3 1 0 2 1 3 3 1 3 3 3 4 3 3 3 3 4 4 5 2 2 2 3 4 2 3 3 1 1 2 1 4 5 5 4 8 3 8 9 8 8 7 7 8 7 8 8 8 8 10 9 9 10 11 11 11 11 12 13 13 14 14
5 5 5 5 4 4 4 4 4 4 4 3 2 2 3 3 2 2 4 3 3 4 4 3 3 3 2 1 3 3 1 2 3 0 1 3 3 3 1 1 3 4 4 4 4 2 2 4 2 2 2 2 3 3 1 7 5 8 9 2 3 6 8 6 7 8 7 7 8 8 8 9 8 8 9 10 11 11 12 12 13 14 14 14 15
6 6 6 5 4 4 4 4 4 4 4 3 3 3 2 4 3 3 4 3 3 3 4 3 4 4 4 3 3 2 2 1 4 2 2 3 3 2 3 2 1 3 4 4 2 5 3 2 5 4 3 2 2 4 2 3 6 6 3 2 3 4 6 5 6 7 6 6 7 7 8 8 8 8 9 10 11 12 12 12 13 14 14 14 15
6 5 5 6 5 5 4 4 4 4 4 4 5 4 3 4 3 3 4 2 3 3 4 4 3 4 4 4 4 4 2 4 5 2 2 2 3 3 3 2 2 4 3 5 4 5 5 3 4 5 5 2 4 4 1 2 8 6 4 2 3 5 5 4 8 6 6 6 7 7 7 7 8 8 9 10 11 11 12 11 12 12 13 13 14
5 4 5 6 6 6 5 5 5 5 5 5 4 4 4 4 3 5 4 4 4 4 4 4 5 3 3 4 2 4 2 4 2 4 3 3 3 3 3 3 3 4 4 4 6 2 4 5 5 5 3 1 4 4 4 3 6 3 4 4 2 3 5 6 8 10 7 7 6 7 6 6 7 8 9 10 11 12 12 12 12 12 12 13 13
7 7 6 6 6 7 7 7 6 6 7 7 6 5 5 5 5 6 4 5 5 5 6 5 5 2 4 5 3 4 3 3 4 3 3 4 4 4 4 3 4 4 4 5 6 6 5 6 6 4 4 2 2 4 4 5 7 7 3 4 2 5 8 7 7 12 10 7 7 6 7 8 9 9 10 11 12 12 12 12 12 12 13 13 13
6 7 7 7 6 6 6 6 6 6 6 6 6 5 5 5 5 6 5 4 5 6 5 5 5 4 4 4 4 4 3 5 4 5 5 4 5 5 4 4 5 4 5 5 6 6 5 5 5 5 4 4 2 1 4 4 4 4 5 3 4 4 5 3 7 9 10 9 7 7 8 9 9 9 10 11 11 12 12 12 12 12 13 13 13
8 8 8 7 7 7 7 7 6 6 6 6 7 6 6 7 7 7 7 7 7 7 5 5 5 5 4 5 5 5 5 6 6 6 6 5 5 5 4 5 4 4 3 5 5 5 5 5 4 4 5 2 5 1 3 5 5 5 6 6 4 4 4 4 4 5 10 11 9 8 9 10 10 10 10 11 11 11 11 12 12 12 12 12 12
8 8 8 7 7 7 7 6 6 7 7 7 7 7 7 7 7 7 6 6 7 7 7 7 7 6 6 6 6 6 5 5 5 6 6 5 5 5 5 4 4 4 3 4 5 5 6 5 4 6 3 1 4 4 4 4 4 3 5 6 5 4 4 4 2 7 9 13 11 9 10 10 10 11 11 10 11 11 11 11 11 11 12 12 12
8 7 7 7 7 7 7 7 7 7 7 8 8 8 8 8 8 7 7 6 6 7 7 7 7 6 6 6 6 5 4 4 5 5 5 5 4 4 4 4 3 5 5 4 5 5 5 5 4 5 5 4 4 4 4 3 4 3 4 4 4 3 5 5 6 4 7 12 11 11 11 11 11 12 11 12 11 11 11 12 13 12 12 12 12
8 7 8 8 8 8 8 9 8 8 8 8 8 8 8 8 8 8 7 7 7 7 7 6 5 5 5 6 5 5 5 5 6 6 5 4 4 4 5 1 1 1 2 4 7 8 6 6 5 4 4 5 4 4 3 4 4 4 2 2 5 3 4 6 7 7 6 9 10 10 12 13 12 12 12 12 12 12 13 13 13 13 13 13 13
9 9 9 8 8 8 8 8 8 8 7 8 8 8 9 8 8 8 7 7 7 7 7 7 6 6 6 5 6 6 6 6 6 5 5 6 5 6 2 1 2 2 2 2 2 4 10 9 6 6 5 5 4 4 4 4 4 3 5 7 5 3 4 6 7 4 4 5 6 7 10 9 12 12 11 12 12 12 13 13 13 13 13 13 13
10 9 9 9 8 9 9 9 9 8 8 8 8 8 8 8 7 7 7 7 6 6 6 6 5 6 6 6 6 6 7 7 7 6 5 5 5 4 2 3 3 2 2 2 2 2 3 6 10 7 6 5 3 5 1 2 6 9 9 5 5 3 3 4 5 4 5 4 6 9 6 5 13 10 10 11 11 13 15 13 13 13 13 13 13
10 10 10 10 10 9 8 8 8 7 7 7 7 8 8 8 8 8 7 7 6 6 6 5 6 6 6 6 7 6 7 6 6 5 4 4 3 4 2 2 3 3 3 2 2 2 3 4 4 9 7 5 5 5 5 2 2 2 7 7 5 4 3 3 3 3 4 6 3 3 5 12 12 14 15 14 11 7 7 13 14 14 12 12 12
9 10 9 9 9 9 8 8 7 7 7 7 7 8 8 9 8 7 7 7 7 6 6 7 7 7 7 7 7 8 3 4 3 3 5 5 4 4 3 2 3 2 3 3 2 3 4 4 4 6 8 4 4 5 1 2 3 2 6 4 5 4 4 4 2 2 4 6 5 5 4 4 3 5 3 5 5 7 11 11 10 12 13 11 12
8 7 8 7 8 8 8 8 8 8 7 7 7 5 2 5 7 6 5 4 4 6 6 7 8 8 8 7 8 4 3 5 4 5 7 6 6 7 4 3 4 3 3 3 3 3 2 6 9 5 6 6 6 3 3 6 2 3 4 5 5 5 5 5 1 3 5 5 6 4 4 5 5 3 2 2 5 7 6 7 7 7 8 9 11
8 7 6 7 7 8 8 9 9 8 8 6 12 10 7 3 5 5 5 5 5 6 6 6 7 8 8 8 8 7 6 7 8 7 5 7 6 7 7 7 5 5 4 3 3 4 7 9 5 6 6 6 6 6 6 5 5 6 5 5 5 6 6 7 6 2 5 6 5 3 1 4 4 2 1 3 4 5 6 7 6 7 7 9 10
7 7 8 8 7 7 8 8 9 8 3 9 13 10 9 9 7 6 6 6 5 5 5 7 6 7 7 7 8 8 2 6 7 3 6 7 6 5 4 4 1 3 6 2 4 5 7 7 6 7 7 5 5 5 5 5 5 6 6 6 5 6 7 7 5 4 4 5 5 5 1 2 3 2 3 3 4 5 7 6 6 6 6 8 9
7 8 8 7 7 8 9 9 8 8 5 7 10 9 9 7 5 5 5 5 5 5 6 5 5 6 4 5 5 3 4 7 6 7 5 4 6 5 6 6 6 5 3 1 1 4 6 6 6 5 4 5 5 3 4 5 6 7 7 6 6 6 6 6 5 4 4 5 5 4 4 3 3 5 2 4 4 6 7 7 5 5 6 8 8
6 1 1 3 2 6 8 10 9 6 7 6 7 8 7 7 7 7 5 5 5 5 5 6 6 5 4 4 3 4 2 3 3 4 8 5 4 6 5 4 3 7 7 8 6 6 5 6 4 3 3 4 4 4 5 5 6 7 6 6 6 6 6 6 4 2 2 5 5 5 6 0 3 4 4 3 7 5 6 7 6 6 5 5 7
5 4 4 3 2 2 3 8 5 6 3 3 8 9 9 10 9 8 5 6 6 5 5 5 5 4 4 5 4 4 1 3 4 6 5 5 4 5 6 5 5 3 5 7 7 6 4 2 1 2 3 2 3 4 4 4 5 5 5 5 5 5 6 5 2 1 3 4 6 5 5 2 2 4 2 4 2 6 7 8 8 8 6 5 4
4 4 5 4 4 3 3 4 6 5 2 6 6 8 9 9 9 7 6 5 6 5 5 5 4 3 4 4 4 3 3 2 6 8 6 5 5 9 6 4 4 6 7 9 10 14 13 10 9 8 8 9 10 8 7 7 5 5 5 6 5 3 5 5 5 5 0 6 7 6 5 4 4 4 5 5 4 3 6 7 10 11 8 6 4
4 5 4 4 4 5 4 3 2 1 5 4 6 7 6 6 7 6 5 5 5 6 4 3 3 1 1 3 4 4 4 4 6 5 5 7 5 6 4 4 7 5 4 6 12 14 15 14 14 12 9 9 11 12 12 13 10 8 6 5 4 4 4 5 4 4 3 5 7 8 6 4 4 4 5 5 5 4 3 4 8 10 12 9 7
4 4 4 5 4 3 5 5 5 3 3 1 6 6 7 7 8 5 4 4 4 4 3 3 3 3 4 7 5 3 4 5 3 4 6 5 4 4 5 7 1 5 3 2 5 7 9 6 7 8 7 6 8 9 11 12 12 9 6 5 7 5 5 4 3 4 2 5 7 9 6 2 4 4 5 6 5 5 3 1 2 6 11 10 9
4 4 4 3 3 2 3 5 8 6 5 3 6 9 8 7 6 5 4 4 4 3 3 3 2 4 3 4 9 8 6 5 5 7 7 4 3 4 5 4 3 3 3 3 3 4 4 4 3 4 5 6 6 5 6 9 11 11 7 7 6 4 4 3 3 3 5 5 7 10 6 4 5 4 6 5 6 1 2 1 3 3 2 2 4
Wind_Direction
132 133 124 110 114 110 108 101 98 107 124 108 102 103 100 87 60 51 73 47 89 91 113 111 111 92 101 108 105 94 93 91 94 94 96 120 124 136 159 163 159 169 174 161 171 188 171 204 224 216 247 258 282 310 319 300 309 314 316 309 310 303 302 309 323 308 303 299 300 301 303 302 303 298 299 299 298 297 294 292 296 296 295 291 282
125 114 119 114 113 117 113 104 108 115 120 106 112 105 83 70 53 51 54 66 72 74 76 83 90 99 92 96 96 107 110 106 100 103 108 105 114 129 165 164 170 178 186 205 215 228 264 300 282 303 285 300 282 287 312 304 301 303 302 302 304 301 296 292 291 296 287 291 292 289 292 293 290 291 293 293 290 286 289 288 285 284 284 287 290
115 125 119 116 111 113 110 121 115 115 116 111 97 74 68 61 45 22 42 50 69 56 45 91 88 92 94 98 106 99 92 106 116 116 102 103 112 126 148 176 179 186 203 208 223 233 247 266 263 273 283 283 288 289 291 289 296 295 300 298 289 288 289 288 283 283 284 279 282 285 284 283 282 283 285 285 284 283 281 282 282 283 285 286 289
113 116 111 115 115 118 132 123 112 114 103 76 83 64 67 64 76 49 84 88 84 78 82 84 88 83 106 95 101 101 99 98 92 87 94 103 114 123 137 151 177 195 200 211 214 224 232 232 248 255 261 265 267 272 271 276 276 284 281 282 282 286 287 287 285 284 285 287 287 288 285 283 282 278 277 277 278 279 278 277 278 278 282 283 284
114 113 118 121 121 132 118 117 116 120 113 79 69 116 100 113 90 129 81 122 91 92 125 112 94 89 109 103 94 95 103 98 104 106 106 115 113 114 110 133 144 182 203 208 214 225 227 234 247 252 257 262 263 264 268 269 271 268 266 267 270 274 281 282 283 280 280 281 282 284 283 281 277 275 271 272 274 275 275 274 273 273 276 279 280
127 127 150 133 128 128 127 121 120 121 112 139 115 87 70 58 55 98 105 79 89 89 86 90 98 114 88 97 91 85 98 100 101 107 110 98 103 115 125 124 147 147 169 195 214 218 223 230 233 244 252 255 261 264 266 267 268 269 269 269 270 269 272 276 276 277 275 275 275 275 279 277 275 272 269 267 268 269 270 271 272 272 270 272 275
121 137 132 136 142 132 130 122 111 137 130 95 290 91 71 80 57 39 47 88 96 82 62 71 93 86 80 81 94 94 90 90 88 106 98 99 110 100 113 124 123 139 165 160 188 209 217 221 227 237 241 249 253 260 263 265 266 267 269 273 272 271 270 272 274 272 270 268 269 271 271 272 271 269 267 264 264 264 267 268 269 269 269 267 267
127 134 148 146 132 131 122 113 123 141 103 75 244 107 78 51 41 34 35 52 102 105 103 95 85 92 99 108 105 113 100 99 116 100 111 140 113 127 120 126 132 111 156 131 148 166 197 210 222 226 239 244 250 256 259 262 264 264 268 270 270 271 271 270 270 267 264 263 264 267 266 268 268 267 266 266 263 261 261 264 264 265 266 267 268
124 119 158 146 136 130 131 126 129 112 142 156 157 70 332 70 52 46 58 4 66 103 106 116 114 115 124 96 89 99 113 120 119 105 102 120 167 141 143 112 119 151 188 140 168 150 179 201 212 228 234 244 247 249 254 257 259 265 268 268 268 268 265 266 263 258 256 257 261 262 267 272 274 271 270 268 265 262 260 260 258 258 262 264 264
111 96 73 65 82 85 97 98 116 118 163 180 145 82 125 24 45 44 49 26 63 92 123 121 125 111 87 88 94 108 115 115 98 141 129 122 114 108 132 146 167 151 109 99 122 163 151 180 200 212 221 226 231 235 241 247 253 260 263 265 265 263 264 263 260 257 254 255 257 261 263 266 273 277 272 269 269 267 266 264 262 260 258 259 261
95 89 165 96 107 101 107 86 124 173 182 202 169 80 14 36 5 34 69 57 55 57 73 55 81 85 102 97 102 94 86 111 155 144 156 123 90 159 143 149 144 151 150 188 166 151 193 129 186 195 190 205 211 220 226 235 245 248 254 260 262 264 273 273 268 274 270 264 266 272 271 273 275 275 273 271 272 273 270 269 266 268 265 261 259
102 78 62 55 93 109 102 151 154 186 195 261 72 119 39 14 5 26 46 130 116 127 126 136 101 80 80 111 105 93 100 129 136 134 147 157 143 195 133 146 150 164 151 186 112 125 157 154 190 166 143 171 195 207 213 223 232 236 244 262 278 281 283 287 292 301 300 292 283 287 294 292 285 275 269 268 266 272 273 273 273 273 270 266 260
102 107 94 101 139 117 144 153 176 155 188 168 13 7 19 341 8 328 57 121 117 135 92 48 107 116 136 97 86 120 115 148 150 141 146 140 131 152 96 114 107 128 108 82 153 165 140 192 153 149 150 138 178 190 199 204 206 208 236 270 281 289 292 297 291 309 313 306 304 310 308 302 292 281 276 276 277 277 278 282 280 277 275 270 269
117 133 130 162 158 159 161 159 172 159 166 115 333 338 4 356 3 167 82 78 117 66 86 196 165 117 132 108 110 92 168 167 176 136 143 118 105 94 270 62 95 61 82 214 163 203 156 101 247 125 131 185 107 122 173 193 168 158 251 264 290 305 307 309 312 306 309 318 322 322 320 309 299 293 288 287 284 279 281 281 279 279 277 275 270
144 159 157 181 163 164 167 158 169 153 170 177 356 341 9 11 308 8 112 133 114 110 133 283 100 64 59 125 114 125 103 295 122 136 133 124 87 60 252 133 77 21 63 148 70 11 342 119 158 147 165 226 163 114 39 11 71 15 261 273 301 314 319 320 316 312 316 323 332 333 331 322 311 303 297 294 289 286 281 279 274 274 273 274 272
152 163 161 153 163 173 163 151 154 140 165 125 276 296 9 7 0 69 302 198 131 102 98 21 55 154 158 155 146 145 145 152 198 137 118 128 147 144 221 119 117 161 212 50 71 37 27 276 97 170 208 195 339 174 142 308 140 212 203 271 25 345 332 329 328 330 326 330 341 340 339 333 324 320 314 310 304 303 294 280 270 266 267 268 270
146 167 151 146 155 178 162 153 155 167 152 173 227 50 7 37 45 11 25 352 94 102 77 126 90 29 105 148 79 153 172 187 168 130 145 181 92 103 333 280 89 4 6 26 182 193 232 60 340 343 311 265 200 189 342 17 28 5 62 98 14 350 343 333 329 328 330 334 343 342 345 345 343 341 336 332 327 323 313 294 279 266 266 265 264
156 169 152 153 158 162 173 171 163 159 189 341 54 245 208 353 60 351 64 49 338 128 133 93 77 113 133 226 305 229 30 80 79 324 308 75 36 328 177 259 134 141 213 173 144 316 172 193 109 241 209 257 346 318 348 357 25 7 6 36 356 355 348 338 327 332 337 341 345 347 353 359 2 358 351 350 348 340 329 313 291 275 270 268 266
155 165 149 149 154 157 164 187 153 149 183 179 205 231 87 53 21 33 16 28 349 41 91 105 78 172 122 93 106 341 146 123 98 148 128 341 24 248 357 269 226 141 176 149 150 195 100 18 291 249 77 129 250 320 313 7 30 30 79 27 5 359 3 349 330 337 342 339 349 355 1 11 10 4 359 358 354 349 341 326 308 289 277 271 271
137 149 159 153 152 152 164 185 195 143 178 215 224 357 45 63 49 48 17 15 6 9 355 42 144 81 26 348 76 82 91 231 143 158 184 153 237 287 206 243 263 79 101 20 36 29 75 193 253 314 6 42 354 318 3 4 354 4 8 35 8 6 10 1 349 343 342 346 356 2 10 17 10 3 3 1 359 357 349 337 323 308 299 293 284
146 147 154 146 159 156 167 190 183 185 210 190 213 116 71 67 60 46 49 38 18 35 351 2 319 80 71 24 1 31 135 105 119 163 221 192 187 185 281 222 230 132 18 349 9 9 354 78 260 215 349 323 37 4 15 17 343 321 2 5 10 11 10 359 352 348 349 346 1 8 23 19 12 4 1 359 0 354 348 342 333 326 316 306 300
160 166 155 169 162 167 182 178 199 178 244 70 81 113 146 145 93 56 38 41 20 2 10 46 7 354 66 47 5 3 334 217 189 196 89 298 278 208 208 225 197 20 309 25 341 1 356 351 59 49 40 4 338 3 18 310 321 318 313 332 24 14 6 357 350 354 359 353 359 14 24 17 12 5 356 355 352 347 343 341 330 325 326 324 324
171 164 181 176 172 191 192 179 205 149 209 185 197 195 161 165 124 108 85 26 24 20 273 280 67 304 144 107 284 191 35 347 7 5 348 346 338 315 237 3 353 39 123 17 306 335 343 29 37 78 35 290 40 353 351 301 247 36 324 176 63 20 6 356 352 7 13 4 12 32 36 24 19 1 352 349 348 344 341 339 339 336 336 336 333
203 172 190 183 169 200 209 185 190 189 179 219 156 209 113 127 128 153 128 82 27 12 332 333 272 113 298 160 260 313 104 312 3 147 125 329 328 346 325 0 284 299 68 300 237 306 328 354 43 92 85 333 114 323 307 284 109 52 334 107 82 34 23 352 3 17 17 23 28 33 31 30 12 1 356 355 351 350 348 349 347 346 346 344 341
198 197 192 185 170 197 203 199 180 190 54 29 123 100 358 321 108 200 118 193 199 286 264 301 329 332 290 339 323 344 329 318 336 324 68 166 244 211 283 355 295 262 28 336 326 302 31 344 359 25 104 345 1 73 318 289 45 47 329 100 48 62 26 9 15 359 22 24 39 28 24 12 1 357 2 358 351 351 357 360 358 356 353 353 347
193 205 199 186 184 180 191 200 188 180 181 156 141 118 313 285 163 234 202 167 247 236 264 221 249 234 281 314 305 216 357 315 298 276 313 10 284 325 356 270 276 303 42 323 307 293 147 273 271 114 33 341 350 357 314 328 11 34 348 302 82 53 36 27 23 23 30 41 29 20 16 7 1 4 5 2 357 0 7 9 9 4 3 2 2
199 188 202 193 195 180 194 204 186 196 188 198 180 161 196 243 276 238 294 175 228 262 239 258 245 298 284 282 295 279 353 266 309 332 334 308 341 5 337 319 312 318 296 241 214 279 324 312 297 82 43 309 337 335 351 329 67 51 314 304 88 73 34 39 27 24 29 30 26 24 16 14 13 10 12 13 7 8 12 11 10 8 5 4 6
198 192 189 198 200 204 196 204 206 194 196 198 219 205 195 234 222 226 236 202 211 221 252 244 239 249 296 324 285 316 286 308 289 273 249 335 347 337 292 278 312 297 316 300 316 274 216 272 172 336 353 14 337 296 241 274 58 327 252 10 68 83 60 39 41 39 36 25 28 21 19 22 19 21 22 21 16 15 14 13 13 12 10 7 9
196 194 199 190 197 213 217 209 193 215 199 204 215 217 220 238 223 229 246 243 216 238 256 247 265 234 215 196 265 270 278 311 288 277 35 337 311 352 315 314 305 300 295 305 275 302 300 325 322 66 11 312 284 304 284 23 45 322 7 350 59 84 75 71 61 60 39 43 37 30 28 30 32 32 30 27 25 21 20 19 19 18 16 14 14
205 194 193 189 196 208 212 225 222 211 219 209 206 213 218 243 224 230 238 248 230 240 244 263 246 246 254 244 216 235 195 225 223 253 127 251 261 234 235 254 237 275 313 302 320 302 315 326 295 125 237 270 266 261 306 52 90 306 341 349 348 50 126 130 112 93 65 53 51 45 42 40 42 41 38 35 29 31 29 25 23 22 19 19 18
192 215 209 204 200 198 213 216 205 216 210 220 207 218 216 240 229 233 209 219 238 234 234 234 250 247 257 257 243 260 265 282 304 249 159 225 239 264 283 284 263 276 283 297 290 301 312 310 307 326 337 307 312 318 337 358 105 4 312 325 30 113 200 155 126 110 93 65 58 53 49 43 50 46 49 39 38 41 37 30 29 25 21 19 17
197 201 212 218 208 215 207 216 218 212 209 211 215 208 221 235 241 245 205 204 230 233 245 233 240 200 235 245 245 267 247 263 261 285 248 238 265 267 253 241 245 252 258 263 274 287 293 299 317 308 279 338 299 316 1 312 123 163 340 288 15 243 232 144 132 109 101 83 68 58 53 56 53 54 48 47 47 44 39 35 28 25 23 20 17
208 207 214 216 221 221 230 228 223 218 217 220 217 218 215 219 234 249 266 227 231 237 227 249 254 224 231 245 250 244 252 256 256 255 255 244 232 240 247 251 253 242 240 248 269 283 290 313 311 307 332 335 322 16 305 319 323 359 297 300 278 297 315 330 109 106 106 100 88 79 72 66 67 62 55 55 52 45 43 39 32 31 28 25 22
210 215 213 212 213 221 225 223 229 229 216 218 230 222 219 220 229 224 220 225 231 239 243 227 234 251 209 231 239 233 220 239 256 259 264 261 257 258 238 238 257 264 256 269 268 278 287 284 292 326 312 298 290 305 325 307 337 316 327 310 315 305 327 318 97 113 119 109 101 91 82 80 77 70 66 62 58 53 51 44 41 36 33 31 27
204 216 213 216 220 219 227 232 225 231 227 226 225 233 234 227 229 242 240 215 220 230 225 226 232 224 226 227 231 233 237 233 236 252 264 272 276 281 283 289 285 276 262 247 265 270 283 290 279 265 249 300 291 312 295 320 312 297 309 322 326 330 334 322 327 128 135 118 112 101 92 88 83 79 74 67 61 59 53 48 44 39 36 35 32
206 204 219 218 214 221 229 227 228 232 231 229 234 228 228 232 235 232 242 245 236 232 236 237 228 223 229 230 246 255 268 261 262 270 271 267 272 263 263 265 281 312 310 279 240 265 278 279 276 286 302 302 282 286 308 303 298 322 313 338 323 328 335 326 312 84 138 125 126 116 106 103 95 84 76 68 66 60 54 50 45 40 36 34 31
202 204 207 213 219 218 225 226 226 230 231 232 232 237 237 230 229 234 235 231 230 233 239 237 246 250 245 247 247 246 243 252 259 259 265 268 268 277 275 10 322 252 274 321 319 298 270 268 277 269 275 271 275 278 280 306 302 318 305 309 324 331 336 324 321 87 100 109 111 109 115 110 107 96 78 69 65 60 54 49 43 38 34 30 29
205 204 206 209 215 219 225 230 230 225 228 230 230 236 239 236 232 236 237 236 238 239 237 231 229 229 236 240 246 247 252 257 269 280 285 288 284 273 308 53 293 293 287 300 276 299 308 297 283 278 259 271 280 296 294 309 325 312 323 305 321 358 329 349 327 324 162 159 161 151 116 113 114 104 94 84 78 70 59 51 44 40 34 29 28
204 203 202 209 212 218 218 225 226 223 224 225 227 226 233 240 240 239 246 239 238 243 238 245 247 244 246 248 246 244 251 255 263 266 268 267 279 307 303 282 262 261 268 262 244 227 220 266 285 272 260 277 296 291 321 265 11 342 323 316 319 343 332 339 324 346 338 2 72 36 42 105 107 101 109 104 95 84 74 59 49 41 34 30 28
208 208 205 207 211 216 222 223 223 221 211 218 221 223 226 234 230 230 231 243 244 236 245 247 252 255 252 256 257 251 244 243 249 263 261 269 272 272 266 267 271 271 275 252 247 261 271 278 290 302 310 319 285 285 280 61 13 285 255 281 316 326 310 298 288 330 350 332 339 176 137 114 115 122 121 114 108 105 97 86 59 41 32 31 31
211 213 212 210 212 216 212 219 220 216 210 210 214 208 213 219 237 235 235 233 235 243 251 253 247 248 255 254 258 260 1 37 42 318 318 335 287 269 260 246 258 268 274 292 290 287 287 282 287 278 267 278 283 276 328 244 245 286 287 312 305 290 307 317 333 58 349 338 336 353 352 321 180 170 94 70 86 92 65 48 70 53 31 30 34
212 216 218 217 219 215 212 210 213 212 216 220 197 193 220 224 215 231 239 242 252 255 256 257 258 250 243 249 256 271 229 240 250 230 237 238 240 275 291 278 256 249 260 294 291 276 306 278 259 262 293 296 299 304 316 291 260 234 306 317 312 321 318 305 347 42 9 347 338 7 348 325 322 29 4 46 85 62 59 56 41 34 30 34 39
209 201 217 221 229 231 223 215 211 215 216 205 134 150 165 196 218 214 226 231 234 241 244 245 257 268 266 251 248 193 223 226 223 222 224 197 213 234 248 261 293 280 244 239 297 290 255 263 300 284 286 300 303 317 305 310 340 343 328 324 315 320 317 320 325 138 76 352 336 345 42 300 320 45 46 87 68 66 75 61 38 46 39 45 43
197 211 209 220 232 244 236 226 220 223 189 113 142 152 168 177 217 224 215 227 240 239 240 255 255 256 275 315 317 327 19 14 331 254 212 218 217 223 213 198 147 16 15 324 266 267 304 298 301 321 302 301 313 319 334 349 339 322 324 317 332 329 325 320 331 335 31 352 338 323 189 257 325 328 143 112 98 74 73 74 68 44 47 46 44
204 205 212 222 232 234 241 233 230 228 128 144 143 160 163 181 184 242 218 232 241 245 256 253 254 259 265 264 285 278 96 249 246 266 266 196 194 201 150 135 132 124 117 58 315 290 274 289 293 287 341 341 328 357 4 349 327 316 317 315 328 319 327 324 338 332 31 348 320 323 328 347 335 305 160 138 131 127 123 100 67 63 45 48 40
199 167 69 63 351 326 317 346 311 295 114 142 151 148 158 171 175 213 217 223 236 239 249 260 264 265 255 256 230 257 263 261 277 278 260 246 216 205 185 212 205 162 179 176 203 201 246 288 347 335 46 1 347 351 350 339 328 326 336 331 335 327 325 336 355 359 26 344 338 333 302 165 2 320 313 148 134 121 111 113 120 86 69 55 47
155 169 175 173 214 208 136 240 271 300 48 185 167 169 173 189 181 213 214 217 223 223 227 222 237 252 265 263 254 246 219 251 28 0 312 275 264 259 234 239 265 24 25 4 355 325 298 337 340 58 20 21 22 15 8 350 351 333 328 322 319 332 317 299 265 275 119 42 359 327 312 345 37 312 311 310 191 138 127 145 139 120 98 80 70
160 154 166 172 168 197 180 173 242 207 210 247 221 194 180 196 183 209 206 211 226 228 217 212 208 234 249 257 260 241 179 159 40 6 348 317 260 250 260 298 349 56 49 42 30 35 33 38 37 52 53 49 39 40 23 6 339 316 290 271 259 276 302 305 296 245 112 72 21 348 318 320 28 336 334 310 307 231 159 145 156 139 134 122 115
169 174 175 183 170 176 167 139 152 167 158 236 244 230 204 190 209 231 218 213 213 220 208 197 225 237 296 305 272 254 156 82 40 350 352 321 281 290 319 31 40 35 54 74 61 50 49 56 73 77 86 76 62 45 31 18 5 336 326 307 321 345 297 296 288 291 68 52 35 352 319 299 14 347 330 322 309 284 235 156 152 162 153 150 139
187 170 171 168 177 171 164 161 143 142 150 193 278 245 238 201 233 242 235 239 223 210 181 201 178 110 49 19 356 45 73 77 51 25 7 318 282 304 5 43 60 175 194 129 98 78 80 78 82 90 85 88 85 65 41 23 6 358 6 346 342 320 307 293 330 324 79 69 33 355 309 356 358 7 342 322 279 246 231 171 329 161 164 169 171
188 190 195 176 163 145 116 97 82 112 116 89 350 322 287 256 246 251 248 245 236 214 194 180 155 162 121 74 47 45 68 88 76 59 34 3 32 37 89 93 50 122 160 143 110 122 132 141 150 144 121 80 52 51 56 42 31 27 24 5 348 333 325 3 334 305 245 100 35 358 334 350 354 17 359 333 331 329 168 331 289 294 276 287 173